FENGYUN 1C DEB, 41823

Orbit data source: Space-Track

FENGYUN 1C DEB, 41823 is space debris in SSO originally from a launch on Mon, 10 May 1999 UTC launched from the Taiyaun Space Center, China (TSC). Fengyun 1C debris stems from the Chinese weather satellite Fengyun-1C, which was intentionally destroyed by a Chinese anti-satellite missile in 2007. This event dramatically increased the amount of space debris, with thousands of trackable fragments posing hazards to satellites and human spaceflight. The Fengyun 1C debris cloud has become a focal point in discussions about space sustainability and the need for international regulations to prevent the creation of new debris.

Loading next visibility...
Identifier
41823, 1999-025EYA
Orbit
SSO
Country
Flag of CNCN / PRC
Related business
Manufacturer
Unknown
Mission
Spacecraft
Bus & Motor
Unknown
Mass
Unknown
Launch date (UTC)
1999-05-10 (26 years ago)
Launch vehicle
Unknown
Launch site
Taiyaun Space Center, China (TSC)
Object type
Payload
Rocket body
Debris
Shape & HBR
Unknown
Radar Cross Section
Small (<0.1 m²)

Expand to show TLE details & history
Last TLE update: 9 hours ago

TLE from 9 hours ago
0 FENGYUN 1C DEB
1 41823U 99025EYA 25261.11112335  .00002685  00000-0  11976-2 0  9993
2 41823  98.7285 325.2144 0056552 117.8198 242.8727 14.22736072461409
Epoch: 2025-09-18T02:40Z
TLE epoch observation values (Epoch: 2025-09-18T02:40:01.057Z)
Latitude
-0.00003°
Longitude
-72.06741°
Altitude
837.769 km
Speed
7.424 km/s
True Right ascension
21h 40m 51s
True Declination
0° 00' 00"
Sunlit
Object was in full shadow at epoch
Visualization orbit readout
Latitude
Unknown
Longitude
Unknown
Altitude
Unknown
Speed
Unknown
Apparent Right ascension
Unknown
Apparent Declination
Unknown
Sunlit
N/A
Visualization observer readout
Local Sidereal Time
04:59:34
Azimuth
Unknown
Elevation
Unknown
Doppler factor
Unknown
Orbital elements
Apogee altitude
853.939 km
Perigee altitude
772.601 km
Semi-major axis
7,191.407 km
Eccentricity
0.00566
Inclination
98.7285°
RAAN
325.2144°
Arg. of periapsis
117.8198°
True anomaly
242.29781°
Mean anomaly
242.8727°
Eccentric anomaly
242.58507°
Mean motion
3.55895 °/min
Orbital period
101.15 mins
BSTAR
0.0011976
Loading maneuver chart data...
Computing Atmospheric mass density...
Loading historical data...
Loading historical data...
Loading historical data...
Loading historical data...
Loading historical data...
Loading historical data...
Loading historical data...

Documentation

Showing up to 5 results
|